Content
SEND FEEDBACK

Daily
Averages
Monthly
Summary
United States of America

CASTLEFORD, IDAHO


Home > North America > United States > Idaho
Elevation: 3830 feet     Latitude: 42 33N     Longitude: 114 52W

WEATHER
 
SELECT A DAY
Number of Records: 182,261;   Date Range: 1/1/95 - 10/19/14
 
SHARE

PRINT THIS DATA

[ ← Previous Day ]
WEATHER ALMANAC - FEBRUARY 13, 2013
[ Next Day → ]
[ °C ]   °F
Weather ElementAverageHighLow
Temperature38.4 °F44.1 °F (1:53 pm)30.9 °F (1:53 am)
Dewpoint27.4 °F30.9 °F (3:53 pm)21.9 °F (1:53 am)
Humidity65 %70 % (7:53 am)58 % (12:53 pm)
Barometer30.25 in30.30 in (1:53 am)30.19 in (3:53 pm)
Wind Speed13.7 mph18.4 mph (10:53 am)
Wind Gust17.3 mph (6:53 pm)
Weather ElementAverage
Visibility10 mi
Wind DirectionSW (225.9 °)

Weather ElementTotal
Precipitation---
Heating Degree Days27.5 (Base 65)
Averaged from 22 records on February 13, 2013
WEATHER CONDITIONS BREAKOUT
WIND DIRECTION BREAKOUT
WEATHER BY HOUR - FEBRUARY 13, 2013
[ °C ]   °F
Local TimeTemperatureDewpointHumidityBarometerVisibilityWind DirectionWind SpeedGust SpeedPrecipitationEventsConditions
1:53 AM30.9 °F21.9 °F69 %30.30 in10.0 miSouth (190°)15.0 mphMostly Cloudy
2:53 AM33.1 °F23.0 °F66 %30.29 in10.0 miSSW (210°)13.8 mphClear
3:53 AM35.1 °F25.0 °F67 %30.28 in10.0 miSSW (200°)15.0 mphOvercast
5:53 AM36.0 °F26.1 °F67 %30.27 in10.0 miSSW (210°)11.5 mphOvercast
6:53 AM35.1 °F25.0 °F67 %30.28 in10.0 miSSW (210°)11.5 mphMostly Cloudy
7:53 AM35.1 °F26.1 °F70 %30.28 in10.0 miSSW (210°)11.5 mphOvercast
8:53 AM36.0 °F26.1 °F67 %30.30 in10.0 miSW (220°)13.8 mphOvercast
9:53 AM37.9 °F28.0 °F68 %30.29 in10.0 miSW (230°)15.0 mphOvercast
10:53 AM39.9 °F28.0 °F63 %30.28 in10.0 miSW (230°)18.4 mphMostly Cloudy
11:53 AM41.0 °F28.9 °F62 %30.27 in10.0 miWSW (240°)13.8 mphClear
12:53 PM43.0 °F28.9 °F58 %30.25 in10.0 miWSW (240°)15.0 mphClear
1:53 PM44.1 °F30.0 °F58 %30.22 in10.0 miWSW (250°)17.3 mphPartly Cloudy
2:53 PM44.1 °F30.0 °F58 %30.20 in10.0 miWSW (250°)13.8 mphMostly Cloudy
3:53 PM44.1 °F30.9 °F60 %30.19 in10.0 miWSW (250°)12.7 mphMostly Cloudy
4:53 PM41.0 °F28.9 °F62 %30.19 in10.0 miSW (230°)10.4 mphClear
5:53 PM39.0 °F28.9 °F67 %30.19 in10.0 miSW (230°)11.5 mphClear
6:53 PM39.0 °F28.0 °F65 %30.20 in10.0 miSSW (210°)11.5 mph17.3 mphPartly Cloudy
7:53 PM37.9 °F28.9 °F70 %30.22 in10.0 miSW (220°)10.4 mphOvercast
8:53 PM37.9 °F28.0 °F68 %30.22 in10.0 miSW (230°)13.8 mphOvercast
9:53 PM37.9 °F28.0 °F68 %30.22 in10.0 miSW (230°)13.8 mphOvercast
10:53 PM37.9 °F27.0 °F65 %30.22 in10.0 miWSW (240°)15.0 mphPartly Cloudy
11:53 PM37.9 °F27.0 °F65 %30.23 in10.0 miWSW (240°)16.1 mphPartly Cloudy
Hourly data recorded from KTWF, located miles away from Castleford, Idaho







STORIES FROM OUR PARTNERS